Погода в Малиновке

Россия / Кемеровская область (Кузбасс)     53°33′05″N   87°05′07″E
темп.,
°C
ветер,
м/с
пор.,
м/с
влажн.,
%
обл.,
%
осадки,
мм/ч
давл.,
гПа
погр.,
м
2 марта, вт
вт201:00−3зюз61494100 2.6 1008879
04:00−2зюз51391100 1.3 10081000
07:00−3юз61394100 1.8 10101061
10:00−3зюз61293100 1.1 10111025
13:00−3зюз61088100 1.4 10131022
16:00−4зюз5989100 0.3 1014977
19:00−7зюз2695100 0.4 1015226
22:00−9зюз1297100 0.1 101622
3 марта, ср
ср301:00−10з1197100 0.2 101621
04:00−11сз0097100 0.1 101520
07:00−11ссз0197100 0.6 101721
10:00−9юз1293100 0.4 1018231
13:00−6юз2390100 0.8 1018500
16:00−5зюз3687100 0.1 1019670
19:00−10юз2395100 0.2 102240
22:00−10юз2796100 0.1 1025236
4 марта, чт
чт401:00−11юз3895100 0.3 1027404
04:00−13ю279699 0.1 1028199
07:00−15ююв229792 0.1 102953
10:00−11ююв249158 0.0 1027180
13:00−5ю378473 0.0 1025472
16:00−2юз486994 0.0 10231174
19:00−5ю128597 0.0 102322
22:00−8ю1287100 0.0 102222
5 марта, пт
пт501:00−9ююв2283100 0.0 102222
04:00−11ююв2281100 0.0 102022
07:00−11юв128172 0.0 101821
10:00−7вюв138067 0.0 1014128
13:00−1ююз358683 0.0 1012361
16:00−4юз61593100 1.3 10151198
19:00−3зюз71586100 2.5 10221456
22:00−6юз51387100 0.2 1026785
6 марта, сб
сб601:00−7ююз51586100 0.2 1027685
04:00−7ююз51682100 0.0 1025738
07:00−9ююз3138799 0.0 1024476
10:00−5ююз51774100 0.0 10221086
13:00−2юз7167199 0.0 10201222
16:00−1юз61673100 0.0 10181385
19:00−4ююз31386100 0.0 1017694
22:00−5ююз31789100 0.0 1017965